Burlington, WA
on Tuesday, December 11, 2012

Tuesday
Previous Day Next Day
Daily Summary
 ActualAverage (KBLI)Record (KBLI)
Temperature
Mean Temperature °F 38°F  
Max Temperature 44°F 44°F 59°F (2014)
Min Temperature 39°F 32°F 20°F (1949)
Degree Days
Heating Degree Days 24 27  
Month to date heating degree days 287  
Cooling Degree Days 0 0  
Month to date cooling degree days 0  
Year to date cooling degree days 42  
Moisture
Dew Point 43°F   
Average Humidity 97    
Maximum Humidity 100    
Minimum Humidity 87    
Precipitation
Precipitation 0.21 in 0.13 in 1.23 in (1955)
Month to date precipitation 1.69  
Year to date precipitation 33.30  
Wind
Wind Speed 8 mph   
Max Wind Speed 16 mph   
Max Gust Speed 25 mph   
Visibility 8 miles   
Events     

Key: T is trace of precipitation, MM is missing value
Source: NWS Daily Summary
Time(PST)TemperatureDew PointHumidity Pressure Visibility Wind DirectionWind SpeedGust SpeedPrecipitationEvents Conditions
12:15 AM 42.8°F 42.8°F 100% 30.06 in 10.0 miles ESE 8.1 mph - 0.00 in   Overcast
12:35 AM 44.6°F 44.6°F 100% 30.03 in 10.0 miles SE 11.5 mph - 0.00 in   Overcast
12:55 AM 44.6°F 42.8°F 93% 30.03 in 10.0 miles SSE 8.1 mph - 0.00 in   Overcast
1:15 AM 44.6°F 42.8°F 93% 30.01 in 10.0 miles SSE 8.1 mph - 0.00 in   Overcast
1:35 AM 44.6°F 44.6°F 100% 30.00 in 10.0 miles SSE 6.9 mph - 0.00 in   Overcast
1:55 AM 44.6°F 44.6°F 100% 29.99 in 10.0 miles SE 8.1 mph - 0.00 in   Overcast
2:15 AM 44.6°F 42.8°F 93% 29.98 in 10.0 miles SE 6.9 mph - 0.00 in   Overcast
2:35 AM 44.6°F 42.8°F 93% 29.97 in 10.0 miles SE 8.1 mph - 0.00 in   Overcast
2:55 AM 44.6°F 42.8°F 93% 29.95 in 10.0 miles SE 10.4 mph - 0.00 in   Overcast
3:15 AM 44.6°F 42.8°F 93% 29.94 in 10.0 miles SE 8.1 mph - 0.00 in   Overcast
3:35 AM 44.6°F 42.8°F 93% 29.93 in 10.0 miles SE 8.1 mph - 0.00 in   Overcast
3:55 AM 44.6°F 42.8°F 93% 29.91 in 10.0 miles SE 9.2 mph - 0.00 in   Overcast
4:15 AM 44.6°F 42.8°F 93% 29.90 in 10.0 miles SE 6.9 mph - 0.00 in   Overcast
4:35 AM 44.6°F 41.0°F 87% 29.90 in 10.0 miles SE 8.1 mph - 0.00 in   Overcast
4:55 AM 44.6°F 41.0°F 87% 29.87 in 10.0 miles SE 10.4 mph - 0.00 in   Overcast
5:15 AM 44.6°F 41.0°F 87% 29.86 in 10.0 miles ESE 9.2 mph - 0.00 in   Overcast
5:35 AM 44.6°F 41.0°F 87% 29.85 in 10.0 miles SE 9.2 mph 16.1 mph 0.00 in   Overcast
5:55 AM 44.6°F 41.0°F 87% 29.84 in 10.0 miles SE 9.2 mph - 0.00 in   Overcast
6:15 AM 44.6°F 42.8°F 93% 29.83 in 9.0 miles SE 8.1 mph - 0.00 in   Overcast
6:35 AM 44.6°F 42.8°F 93% 29.80 in 8.0 miles SE 11.5 mph - 0.00 in   Overcast
6:55 AM 42.8°F 42.8°F 100% 29.79 in 6.0 miles ESE 11.5 mph 16.1 mph 0.00 in   Overcast
7:15 AM 42.8°F 42.8°F 100% 29.80 in 8.0 miles SE 5.8 mph - 0.00 in   Overcast
7:55 AM 42.8°F 42.8°F 100% 29.79 in 2.0 miles East 5.8 mph - 0.00 in   Overcast
8:15 AM 42.8°F 42.8°F 100% 29.77 in 2.5 miles ESE 6.9 mph - 0.00 in   Overcast
8:35 AM 42.8°F 42.8°F 100% 29.76 in 3.0 miles ESE 10.4 mph - 0.00 in   Overcast
8:55 AM 42.8°F 42.8°F 100% 29.74 in 5.0 miles ESE 10.4 mph - 0.01 in   Overcast
9:15 AM 42.8°F 42.8°F 100% 29.73 in 8.0 miles ESE 10.4 mph - 0.00 in   Overcast
9:35 AM 44.6°F 44.6°F 100% 29.72 in 9.0 miles SE 12.7 mph 20.7 mph 0.00 in   Overcast
9:55 AM 44.6°F 44.6°F 100% 29.71 in 10.0 miles SE 11.5 mph 18.4 mph 0.00 in   Overcast
10:15 AM 44.6°F 42.8°F 93% 29.70 in 10.0 miles SE 11.5 mph 18.4 mph 0.00 in   Overcast
10:35 AM 44.6°F 42.8°F 93% 29.69 in 10.0 miles SE 13.8 mph 19.6 mph 0.00 in   Overcast
10:55 AM 44.6°F 42.8°F 93% 29.67 in 10.0 miles SE 15.0 mph 21.9 mph 0.00 in   Overcast
11:15 AM 44.6°F 42.8°F 93% 29.65 in 10.0 miles SE 16.1 mph 25.3 mph 0.00 in   Overcast
11:35 AM 44.6°F 42.8°F 93% 29.65 in 7.0 miles SE 13.8 mph 19.6 mph 0.00 in   Overcast
11:55 AM 44.6°F 44.6°F 100% 29.64 in 4.0 miles SE 12.7 mph 19.6 mph 0.02 in   Overcast
12:15 PM 44.6°F 44.6°F 100% 29.63 in 8.0 miles SE 12.7 mph 16.1 mph 0.01 in   Overcast
12:35 PM 44.6°F 44.6°F 100% 29.62 in 5.0 miles SE 8.1 mph - 0.01 in   Overcast
12:55 PM 44.6°F 44.6°F 100% 29.61 in 7.0 miles ESE 10.4 mph - 0.03 in   Overcast
1:15 PM 44.6°F 44.6°F 100% 29.60 in 10.0 miles ESE 10.4 mph - 0.00 in   Overcast
1:35 PM 44.6°F 44.6°F 100% 29.59 in 8.0 miles SE 6.9 mph - 0.00 in   Overcast
1:55 PM 44.6°F 44.6°F 100% 29.58 in 9.0 miles SE 11.5 mph - 0.01 in   Overcast
2:15 PM 44.6°F 44.6°F 100% 29.57 in 5.0 miles SE 9.2 mph - 0.01 in   Overcast
2:55 PM 44.6°F 44.6°F 100% 29.57 in 10.0 miles ESE 8.1 mph - 0.02 in   Overcast
3:15 PM 44.6°F 44.6°F 100% 29.57 in 10.0 miles East 8.1 mph - 0.00 in   Overcast
3:35 PM 42.8°F 42.8°F 100% 29.57 in 8.0 miles East 6.9 mph - 0.00 in   Overcast
3:55 PM 42.8°F 42.8°F 100% 29.57 in 2.5 miles East 5.8 mph - 0.01 in   Overcast
4:15 PM 42.8°F 42.8°F 100% 29.56 in 4.0 miles East 6.9 mph - 0.00 in   Overcast
4:35 PM 42.8°F 42.8°F 100% 29.56 in 4.0 miles East 8.1 mph - 0.02 in   Overcast
4:55 PM 42.8°F 42.8°F 100% 29.56 in 3.0 miles ESE 4.6 mph - 0.03 in   Overcast
5:15 PM 42.8°F 42.8°F 100% 29.57 in 3.0 miles East 6.9 mph - 0.02 in   Overcast
5:35 PM 42.8°F 42.8°F 100% 29.57 in 5.0 miles SE 9.2 mph - 0.02 in   Overcast
5:55 PM 42.8°F 42.8°F 100% 29.57 in 5.0 miles SE 5.8 mph - 0.02 in   Overcast
6:15 PM 42.8°F 42.8°F 100% 29.57 in 5.0 miles ESE 6.9 mph - 0.00 in   Overcast
6:35 PM 42.8°F 42.8°F 100% 29.57 in 5.0 miles ESE 4.6 mph - 0.00 in   Overcast
6:55 PM 42.8°F 42.8°F 100% 29.57 in 7.0 miles East 4.6 mph - 0.00 in   Overcast
7:15 PM 41.0°F 41.0°F 100% 29.57 in 10.0 miles ENE 4.6 mph - 0.00 in   Overcast
7:35 PM 41.0°F 41.0°F 100% 29.57 in 10.0 miles ENE 4.6 mph - 0.00 in   Overcast
7:55 PM 41.0°F 41.0°F 100% 29.57 in 10.0 miles ENE 4.6 mph - 0.00 in   Overcast
8:15 PM 41.0°F 41.0°F 100% 29.58 in 9.0 miles Calm Calm - 0.00 in   Overcast
8:35 PM 41.0°F 41.0°F 100% 29.58 in 3.0 miles ENE 4.6 mph - 0.00 in   Overcast
8:55 PM 41.0°F 41.0°F 100% 29.58 in 9.0 miles NE 4.6 mph - 0.00 in   Overcast
9:15 PM 41.0°F 41.0°F 100% 29.59 in 10.0 miles NE 4.6 mph - 0.00 in   Overcast
9:35 PM 41.0°F 41.0°F 100% 29.59 in 9.0 miles ENE 4.6 mph - 0.01 in   Overcast
9:55 PM 41.0°F 41.0°F 100% 29.60 in 3.0 miles East 3.5 mph - 0.01 in   Overcast
10:15 PM 41.0°F 41.0°F 100% 29.60 in 5.0 miles ENE 3.5 mph - 0.00 in   Overcast
10:35 PM 41.0°F 41.0°F 100% 29.60 in 8.0 miles Calm Calm - 0.00 in   Overcast
10:55 PM 41.0°F 41.0°F 100% 29.60 in 4.0 miles NE 3.5 mph - 0.00 in   Overcast
11:15 PM 39.2°F 39.2°F 100% 29.61 in 4.0 miles NE 3.5 mph - 0.00 in   Overcast
11:55 PM 39.2°F 39.2°F 100% 29.61 in 2.5 miles NE 4.6 mph - 0.05 in   Overcast
Moon Phase
Dec. 11 Dec. 13 Dec. 20 Dec. 28 Jan. 04
Sunrise:07:51 AM (PST) Moon Rise:05:49 AM (PST)12/11
Sunset:04:14 PM (PST) Moon Set:03:01 PM (PST)12/11

Copyright © 2014 The Weather Underground, Inc.